STARLINK-1543, 46053

Orbit data source: Space-Track

STARLINK-1543, 46053 is a payload satellite owned by SpaceX/Seattle (US) in LEO that was launched on Fri, 07 Aug 2020 UTC via an FALCON 9 launch vehicle from the Air Force Eastern Test Range (AFETR). Payloads include a variety of satellites, spacecraft, and rockets equipped with specific instruments for various scientific and technological missions. These include communications satellites like Starlink; space stations such as the ISS; scientific satellites like the Hubble; Earth observation satellites from companies like Planet Labs, Umbra, and HawkEye 360; GPS; miniature CubeSats for education and research; and military/defense satellites.

Loading next visibility...
STARLINK-1543 details
Identifier
46053, 2020-055AC
Orbit
LEO
Last TLE update21 hours ago
Origin
Flag of USSpaceX/Seattle (US)
ManufacturerSpaceX/Seattle
MissionOperational Commercial Communications
Bus & MotorSTARLINK, Unknown motor
Mass260 kg wet, ~248 kg dry
Launch date (UTC)
2020-08-07 (4 years ago)
Launch vehicle
FALCON 9
Launch site
Air Force Eastern Test Range (AFETR)
Object type
Payload
Rocket body
Debris
Shape & HBRBox + 1 Pan, 8.86 m
Radar Cross Section13.562 m², Large (>1 m²)

Expand to show TLE details & history

TLE from 21 hours ago
0 STARLINK-1543
1 46053U 20055AC  24360.53911164  .00015707  00000-0  10715-2 0  9991
2 46053  53.0557 288.0340 0001739 124.0181 236.0973 15.06383284242320
Epoch: 2024-12-25T12:56Z
Definitive object data (Epoch: 2024-12-25T12:56:19.245Z)
Latitude-0.00006°
Longitude-0.57764°
Altitude548.814 km
Speed7.588 km/s
True Right ascension19h 12m 08s
True Declination0° 00' 00"
Sunlit
Object was in daylight at TLE epoch
Visualization TLE readout
Latitude52.05932°
Longitude69.08653°
Altitude552.643 km
Speed7.592 km/s
Apparent Right ascension22h 30m 22s
Apparent Declination8° 58' 41"
Sunlit
Object is in daylight
Visualization observer readout
Local Sidereal Time09:20:38
Azimuth337.78° N
Elevation-38.51°
Doppler factor1
Orbital elements
Apogee altitude548.738 km
Perigee altitude546.329 km
Semi-major axis6,925.67 km
Eccentricity0.0001739
Inclination53.0557°
RAAN288.034°
Arg. of periapsis124.0181°
True anomaly236.08076°
Mean anomaly236.0973°
Eccentric anomaly236.08903°
Mean motion3.76574 °/min
BSTAR0.0010715
Orbital period95.6 mins
Loading maneuver chart data...
Loading historical data...
Loading historical data...
Loading historical data...
Loading historical data...
Loading historical data...
Loading historical data...
Loading historical data...

STARLINK-1543 Visibility forecast

Observer location: undefined°, undefined

Span
Click to sort rows by Start time (UTC) header in descending order
Start Az.
Max El. time (UTC)
Max El. Az.
Max El.
End time (UTC)
End Az.
5 mins2024-12-26 20:56:31.931Z178.11° S2024-12-26 20:58:31.931Z142.297° SSE23.179°2024-12-26 21:01:31.931Z81.529° E
6 mins2024-12-26 22:35:31.931Z258.693° W2024-12-26 22:38:31.931Z334.601° NNW35.198°2024-12-26 22:41:31.931Z36.513° NE
6 mins2024-12-27 03:37:31.931Z333.318° NNW2024-12-27 03:40:31.931Z40.233° NE27.454°2024-12-27 03:43:31.931Z91.319° ESE
6 mins2024-12-27 05:17:31.931Z285.711° WNW2024-12-27 05:19:31.931Z236.17° WSW33.601°2024-12-27 05:23:31.931Z155.807° SSE
|